Content
SEND FEEDBACK

Daily
Averages
Monthly
Summary
Mexico

PUERTO MORELOS, QUINTANA ROO


Home > North America > Mexico > Quintana Roo
Elevation: 20 feet     Latitude: 20 51N     Longitude: 086 52W

WEATHER
 
SELECT A DAY
Number of Records: 167,246;   Date Range: 1/1/95 - 11/27/14
 
SHARE

PRINT THIS DATA

[ ← Previous Day ]
WEATHER ALMANAC - FEBRUARY 22, 2013
[ Next Day → ]
[ °C ]   °F
Weather ElementAverageHighLow
Temperature79.8 °F84.2 °F (9:44 am)73.4 °F (8:41 am)
Dewpoint71.4 °F71.6 °F (1:40 am)69.8 °F (7:45 am)
Humidity75.8 %94 % (8:41 am)62 % (12:44 pm)
Barometer29.94 in29.99 in (9:44 am)29.90 in (4:42 am)
Wind Speed15.5 mph24.2 mph (3:41 pm)
Weather ElementAverage
Visibility7 mi
Wind DirectionSSE (141.3 °)

Weather ElementTotal
Precipitation---
Cooling Degree Days13.8 (Base 65)
Growing Degree Days28.8 (Base 50)
Averaged from 23 records on February 22, 2013
WEATHER CONDITIONS BREAKOUT
WIND DIRECTION BREAKOUT
WEATHER BY HOUR - FEBRUARY 22, 2013
[ °C ]   °F
Local TimeTemperatureDewpointHumidityBarometerVisibilityWind DirectionWind SpeedGust SpeedPrecipitationEventsConditions
1:40 AM77.0 °F71.6 °F83 %29.92 in7.0 miSSE (150°)13.8 mphScattered Clouds
2:42 AM77.0 °F71.6 °F83 %29.91 in7.0 miSE (140°)11.5 mphScattered Clouds
3:40 AM77.0 °F71.6 °F83 %29.91 in7.0 miSE (130°)11.5 mphScattered Clouds
4:42 AM77.0 °F71.6 °F83 %29.90 in7.0 miSE (130°)9.2 mphScattered Clouds
5:41 AM77.0 °F71.6 °F83 %29.91 in7.0 miSE (140°)12.7 mphScattered Clouds
6:40 AM78.8 °F71.6 °F78 %29.94 in7.0 miSE (140°)12.7 mphScattered Clouds
7:45 AM80.6 °F69.8 °F70 %29.96 in7.0 miSE (140°)16.1 mphScattered Clouds
8:41 AM73.4 °F71.6 °F94 %29.98 in7.0 miSE (140°)16.1 mphScattered Clouds
9:44 AM84.2 °F71.6 °F66 %29.99 in7.0 miSE (140°)19.6 mphMostly Cloudy
10:43 AM84.2 °F71.6 °F66 %29.99 in7.0 miSE (140°)18.4 mphMostly Cloudy
11:40 AM82.4 °F71.6 °F70 %29.98 in7.0 miSE (130°)20.7 mphMostly Cloudy
12:44 PM84.2 °F69.8 °F62 %29.95 in7.0 miSSE (150°)20.7 mphMostly Cloudy
1:47 PM84.2 °F71.6 °F66 %29.93 in7.0 miSSE (150°)17.3 mphMostly Cloudy
2:41 PM82.4 °F71.6 °F70 %29.92 in7.0 miSE (140°)21.9 mphMostly Cloudy
3:41 PM82.4 °F71.6 °F70 %29.90 in7.0 miSSE (150°)24.2 mphMostly Cloudy
4:42 PM80.6 °F71.6 °F74 %29.91 in7.0 miSSE (160°)18.4 mphScattered Clouds
5:47 PM80.6 °F71.6 °F74 %29.91 in7.0 miSSE (150°)11.5 mphScattered Clouds
6:44 PM78.8 °F71.6 °F78 %29.93 in7.0 miSE (140°)11.5 mphScattered Clouds
7:45 PM78.8 °F71.6 °F78 %29.95 in7.0 miSE (140°)12.7 mphPartly Cloudy
8:53 PM78.8 °F71.6 °F78 %29.96 in7.0 miSE (140°)11.5 mphPartly Cloudy
9:48 PM78.8 °F71.6 °F78 %29.96 in7.0 miSSE (150°)12.7 mphPartly Cloudy
10:47 PM78.8 °F71.6 °F78 %29.95 in7.0 miSE (130°)13.8 mphClear
11:46 PM78.8 °F71.6 °F78 %29.93 in7.0 miSE (130°)17.3 mphClear
Hourly data recorded from MMUN, located miles away from Puerto Morelos, Quintana Roo







STORIES FROM OUR PARTNERS